Location: Unspecified
(0.0000°N, 0.0000°E)
Time: 07:08:55
(UTC+00:00)

Vanguard 2 - Pass Details

Date: 16 December 2018
Orbit: 553 x 2939 km, 32.9° (Epoch: 16 June)

Event Time Altitude Azimuth Distance (km) Brightness Sun altitude
Rises 02:05:50 0° 316° (NW) 4,916 - -50.7°
Reaches altitude 10° 02:08:43 10° 321° (NW) 4,207 - -50.1°
Maximum altitude 02:20:51 58° 38° (NE) 2,801 - -47.7°
Exits shadow 02:21:44 57° 50° (NE) 2,854 10.1 -47.5°
Drops below altitude 10° 02:37:56 10° 113° (ESE) 5,763 12.5 -44.2°
Sets 02:42:38 0° 116° (ESE) 6,783 13.1 -43.2°
